Location: Newark
(37.9717°N, 99.9089°W)
Time: 21:10:12
(UTC+00:00)

N. Korean satellite - Pass Details

Date: 03 October 2021
Orbit: 450 x 495 km, 97.3° (Epoch: 23 October)

Event Time Altitude Azimuth Distance (km) Brightness Sun altitude
Rises 10:47:48 0° 37° (NE) 2,561 11.0 -22.3°
Reaches altitude 10° 10:51:17 10° 74° (ENE) 1,683 10.5 -21.6°
Maximum altitude 10:52:25 11° 92° (E) 1,611 10.3 -21.4°
Drops below altitude 10° 10:53:32 10° 110° (ESE) 1,683 10.1 -21.2°
Sets 10:57:01 0° 147° (SSE) 2,564 10.5 -20.5°
